Humidity-temperature Sensor

Selected Measurement Type: Relative Humidity

 
Relative Humidity [%]     6 entries per hour
Showing data from 4/19/2024 (00:00:00 Z) to 4/16/2024 (00:01:00 Z)
Previous Next [ Day | 3-Days | 7-Days ]
First Last
Prev [ Day | 3-Days | 7-Days ] Next
First Last

Start Time:     :
End Time:     :     
Time (in GMT) :00 :50 :40 :30 :20 :10
Previous Next [ Day | 3-Days | 7-Days ]
First Last
Prev [ Day | 3-Days | 7-Days ] Next
First Last


123 => good data
MM => data is determined as missing
-- => data not received/configured
Back to Top Back to Top
4/19/2024 00:00 to 23:10 88.86 89.38 89.28 88.90 88.29 88.01
4/18/2024 23:00 to 22:10 88.05 88.57 88.94 88.92 89.22 89.40
4/18/2024 22:00 to 21:10 88.90 88.59 88.55 88.27 89.16 88.90
4/18/2024 21:00 to 20:10 89.00 90.32 91.13 91.25 90.85 90.32
4/18/2024 20:00 to 19:10 90.50 90.12 90.14 90.32 90.36 90.63
4/18/2024 19:00 to 18:10 90.63 90.44 90.50 90.30 90.38 90.69
4/18/2024 18:00 to 17:10 90.59 91.27 91.37 91.63 92.03 91.43
4/18/2024 17:00 to 16:10 91.15 91.33 91.63 92.50 92.98 93.44
4/18/2024 16:00 to 15:10 94.10 94.40 94.38 94.47 93.56 94.20
4/18/2024 15:00 to 14:10 94.49 93.82 93.40 92.74 93.52 93.66
4/18/2024 14:00 to 13:10 93.86 93.62 93.82 93.70 93.54 93.40
4/18/2024 13:00 to 12:10 93.70 93.86 93.58 93.60 93.58 93.72
4/18/2024 12:00 to 11:10 93.48 93.40 93.26 92.90 92.62 92.96
4/18/2024 11:00 to 10:10 92.98 93.16 93.26 93.28 93.16 92.70
4/18/2024 10:00 to 9:10 92.50 92.29 92.07 92.01 91.69 91.75
4/18/2024 09:00 to 8:10 91.47 91.35 91.09 91.09 90.71 90.59
4/18/2024 08:00 to 7:10 90.12 89.88 89.94 89.70 90.24 90.97
4/18/2024 07:00 to 6:10 90.65 90.52 90.06 90.02 89.34 89.76
4/18/2024 06:00 to 5:10 90.32 90.77 90.69 90.34 90.08 90.54
4/18/2024 05:00 to 4:10 90.93 90.42 89.98 90.00 90.28 90.14
4/18/2024 04:00 to 3:10 89.32 89.00 89.02 88.84 88.35 88.13
4/18/2024 03:00 to 2:10 87.87 87.73 88.07 87.87 88.11 88.01
4/18/2024 02:00 to 1:10 87.07 87.35 87.75 88.15 87.35 86.69
4/18/2024 01:00 to 0:10 86.20 85.30 85.18 85.02 84.74 84.82
4/18/2024 00:00 to 23:10 85.14 85.40 85.50 85.34 85.40 85.02
4/17/2024 23:00 to 22:10 85.14 85.64 84.80 84.43 84.74 85.66
4/17/2024 22:00 to 21:10 84.84 85.32 86.10 84.86 85.36 84.76
4/17/2024 21:00 to 20:10 85.26 85.86 86.62 86.64 86.36 86.34
4/17/2024 20:00 to 19:10 86.87 85.76 86.04 86.22 86.04 85.40
4/17/2024 19:00 to 18:10 87.29 87.07 86.56 86.85 88.70 88.96
4/17/2024 18:00 to 17:10 88.31 87.99 88.09 90.38 90.28 88.90
4/17/2024 17:00 to 16:10 88.53 89.72 89.74 89.38 89.38 89.02
4/17/2024 16:00 to 15:10 89.98 89.68 89.74 89.76 89.72 89.30
4/17/2024 15:00 to 14:10 89.20 88.90 89.24 90.34 90.59 90.81
4/17/2024 14:00 to 13:10 90.89 90.36 91.05 91.97 91.37 91.27
4/17/2024 13:00 to 12:10 92.66 93.22 93.12 93.28 93.14 93.14
4/17/2024 12:00 to 11:10 93.36 93.56 93.82 93.66 93.32 93.22
4/17/2024 11:00 to 10:10 92.92 92.98 92.58 92.52 92.88 93.30
4/17/2024 10:00 to 9:10 -- -- -- -- -- --
4/17/2024 09:00 to 8:10 92.21 92.15 91.85 91.43 91.79 92.49
4/17/2024 08:00 to 7:10 92.52 92.58 92.35 93.12 92.21 91.45
4/17/2024 07:00 to 6:10 91.57 91.75 91.99 92.21 92.07 91.67
4/17/2024 06:00 to 5:10 92.17 91.91 92.03 92.31 92.41 91.95
4/17/2024 05:00 to 4:10 91.87 91.17 91.11 91.03 90.99 91.19
4/17/2024 04:00 to 3:10 91.01 90.55 90.73 91.41 90.59 90.20
4/17/2024 03:00 to 2:10 90.50 90.61 91.45 90.55 89.84 89.84
4/17/2024 02:00 to 1:10 89.60 88.96 89.76 89.30 89.58 89.14
4/17/2024 01:00 to 0:10 89.04 88.47 86.71 85.52 84.78 85.58
4/17/2024 00:00 to 23:10 85.10 86.24 86.71 86.22 86.44 86.06
4/16/2024 23:00 to 22:10 86.06 85.46 85.40 85.04 86.08 86.93
4/16/2024 22:00 to 21:10 86.64 87.01 86.89 87.31 86.97 87.01
4/16/2024 21:00 to 20:10 88.35 88.96 89.18 89.86 89.88 89.70
4/16/2024 20:00 to 19:10 90.42 90.81 91.13 91.49 91.69 91.49
4/16/2024 19:00 to 18:10 91.93 91.97 91.63 91.81 91.67 91.77
4/16/2024 18:00 to 17:10 92.11 91.81 91.93 92.01 92.09 92.47
4/16/2024 17:00 to 16:10 92.41 92.49 92.47 92.37 92.33 92.21
4/16/2024 16:00 to 15:10 92.07 91.95 91.81 91.45 91.13 91.45
4/16/2024 15:00 to 14:10 91.31 91.45 91.35 91.13 91.35 91.77
4/16/2024 14:00 to 13:10 91.91 92.25 92.25 92.52 92.68 92.47
4/16/2024 13:00 to 12:10 -- -- -- -- -- --
4/16/2024 12:00 to 11:10 -- -- -- -- -- --
4/16/2024 11:00 to 10:10 93.20 92.90 93.18 93.86 94.08 94.24
4/16/2024 10:00 to 9:10 94.10 93.96 93.76 93.48 93.68 93.54
4/16/2024 09:00 to 8:10 93.22 92.86 92.45 92.17 92.07 91.97
4/16/2024 08:00 to 7:10 91.87 91.89 91.51 91.63 91.55 92.01
4/16/2024 07:00 to 6:10 91.77 91.97 92.41 92.76 92.68 92.56
4/16/2024 06:00 to 5:10 92.37 91.83 91.79 91.73 91.15 90.77
4/16/2024 05:00 to 4:10 90.93 91.45 91.25 91.13 91.13 90.69
4/16/2024 04:00 to 3:10 90.18 89.28 90.40 91.25 90.44 89.78
4/16/2024 03:00 to 2:10 89.44 89.88 89.36 89.48 89.34 89.90
4/16/2024 02:00 to 1:10 89.72 89.58 91.33 90.83 90.65 89.66
4/16/2024 01:00 to 0:10 89.40 88.23 88.53 87.05 86.79 87.03